Regional Weather Roundup
Issued by NWS

Home | Current Version | Previous Version | Graphics & Text | Print | Product List | Glossary On
Versions: 1 2 3 4 5 6 7 8 9 10 11 12 13 14 15 16 17 18 19 20 21 22 23 24 25 26 27 28 29 30 31 32 33 34 35 36 37 38 39 40 41 42 43 44 45 46 47 48 49 50
000
ASUS43 KLMK 220410
RWRKY
KENTUCKY REGIONAL WEATHER ROUNDUP
NATIONAL WEATHER SERVICE LOUISVILLE KY
1200 AM EDT MON SEP 22 2014

NOTE "FAIR" INDICATES FEW OR NO CLOUDS BELOW 12,000 FEET
WITH NO SIGNIFICANT WEATHER AND/OR OBSTRUCTIONS TO VISIBILITY.

KYZ001>023-026-027-061>063-070>075-220500-
WESTERN AND SOUTH CENTRAL KENTUCKY

CITY           SKY/WX    TMP DP  RH WIND       PRES   REMARKS
PADUCAH        CLEAR     66  51  58 N7        30.09R
HENDERSON      CLEAR     61  48  63 N5        30.10S
OWENSBORO      CLEAR     63  50  62 N6        30.10R
HOPKINSVILLE   CLEAR     65  50  58 N7        30.08R
BOWLING GREEN  CLEAR     64  49  57 N6        30.07R
GLASGOW        CLEAR     62  49  63 N8        30.07R
$$

KYZ024-025-028>034-038-045-046-053-220500-
NORTH CENTRAL KENTUCKY

CITY           SKY/WX    TMP DP  RH WIND       PRES   REMARKS
LOUISVILLE/SDF CLEAR     63  50  62 N12       30.07R
LOUISVILLE/LOU CLEAR     62  50  64 N7        30.08R
FORT KNOX      CLEAR     57  51  80 NW2       30.07R
$$

KYZ035>037-039>044-047>052-055>060-089>105-220500-
NORTHEAST KENTUCKY

CITY           SKY/WX    TMP DP  RH WIND       PRES   REMARKS
LEXINGTON      CLEAR     60  49  66 N8        30.06R
COVINGTON      CLEAR     58  47  66 N12       30.07R
FRANKFORT      CLEAR     59  48  67 NW6       30.06R
$$

KYZ054-064>069-076>088-106>120-220500-
SOUTHEAST KENTUCKY

CITY           SKY/WX    TMP DP  RH WIND       PRES   REMARKS
JACKSON        CLEAR     62  48  60 N6        30.03R
LONDON         CLEAR     62  49  62 N7        30.05R
SOMERSET       CLEAR     63  46  55 N5        30.06R
MIDDLESBORO    CLEAR     59  53  80 CALM      30.03R
MONTICELLO     CLEAR     56  52  86 N7        30.06R
$$



USA.gov is the U.S. government's official web portal to all federal, state and local government web resources and services.